Date String (YYYY-MM-DD hh:mm:ss) UTC,Instrument flags,Ambient pressure (hPa),Sample flow (lpm),Bypass flow (lpm),Sample temperature (°C),Ambient temperature (°C),ASC tube jacket temperature (°C),LED temperature (°C),Box temperature (°C),Sample RH (%),Span deviation,Mass concentration (μg/m³),Mass concentration (μg/m³),Mass concentration (μg/m³)
DateTimeUTC,F1_M11,P_M11,Q1_M11,Q2_M11,T1_M11,T2_M11,T3_M11,T4_M11,T5_M11,U1_M11,ZSPAN_M11,X0_M11,X2_M11,X1_M11
2022-07-10 02:00:00,,0830.1,5.00,0.00,29.3,27.2,00.0,38.0,31.0,17.0,0000.0,0008.15,0003.73,0003.25
2022-07-10 02:01:00,,0830.1,5.00,0.00,29.3,27.4,00.0,38.0,31.1,17.2,0000.0,0008.04,0003.71,0003.26
2022-07-10 02:02:00,,0830.1,5.00,0.00,29.3,27.6,00.0,38.0,31.1,17.2,0000.0,0007.42,0003.69,0003.26
2022-07-10 02:03:00,,0830.1,5.00,0.00,29.4,27.8,00.0,38.0,31.2,17.1,0000.0,0007.37,0003.68,0003.26
2022-07-10 02:04:00,,0830.1,5.00,0.00,29.4,28.1,00.0,38.0,31.3,17.1,0000.0,0007.24,0003.68,0003.26
2022-07-10 02:05:00,,0830.1,5.02,0.00,29.4,28.2,00.0,38.0,31.4,17.0,0000.0,0007.25,0003.64,0003.26
2022-07-10 02:06:00,,0830.1,5.00,0.00,29.4,27.6,00.0,38.0,31.3,17.1,0000.0,0007.64,0003.64,0003.25
2022-07-10 02:07:00,,0830.1,4.99,0.00,29.4,27.0,00.0,38.0,31.1,17.8,0000.0,0007.70,0003.67,0003.26
2022-07-10 02:08:00,,0830.1,5.00,0.00,29.3,27.0,00.0,37.9,31.1,18.0,0000.0,0007.74,0003.69,0003.27
2022-07-10 02:09:00,,0830.1,5.00,0.00,29.3,27.1,00.0,37.9,31.0,18.0,0000.0,0007.79,0003.71,0003.28
2022-07-10 02:10:00,,0830.1,5.00,0.00,29.3,27.3,00.0,38.0,31.0,18.2,0000.0,0007.72,0003.71,0003.29
2022-07-10 02:11:00,,0830.1,5.00,0.00,29.3,27.5,00.0,38.0,31.1,18.1,0000.0,0007.51,0003.73,0003.31
2022-07-10 02:12:00,,0830.1,5.00,0.00,29.3,27.7,00.0,38.0,31.2,18.1,0000.0,0007.34,0003.76,0003.32
2022-07-10 02:13:00,,0830.1,5.00,0.00,29.3,28.0,00.0,38.0,31.3,18.1,0000.0,0007.41,0003.77,0003.33
2022-07-10 02:14:00,,0830.1,5.02,0.00,29.4,28.1,00.0,38.0,31.3,18.0,0000.0,0007.48,0003.81,0003.35
2022-07-10 02:15:00,,0830.1,5.00,0.00,29.4,28.0,00.0,38.0,31.3,17.9,0000.0,0007.49,0003.83,0003.37
2022-07-10 02:16:00,,0830.2,5.01,0.00,29.4,27.3,00.0,38.0,31.2,18.1,0000.0,0007.58,0003.88,0003.40
2022-07-10 02:17:00,,0830.1,5.00,0.00,29.3,26.9,00.0,37.9,31.1,18.3,0000.0,0007.43,0003.91,0003.43
2022-07-10 02:18:00,,0830.1,4.99,0.00,29.3,27.0,00.0,37.9,31.0,18.4,0000.0,0007.69,0003.96,0003.44
2022-07-10 02:19:00,,0830.1,5.00,0.00,29.2,27.1,00.0,37.9,31.0,18.5,0000.0,0007.85,0003.96,0003.43
2022-07-10 02:20:00,,0830.1,4.99,0.00,29.2,27.3,00.0,37.9,31.0,18.2,0000.0,0007.94,0003.96,0003.43
2022-07-10 02:21:00,,0830.1,5.01,0.00,29.2,27.5,00.0,37.9,31.1,18.4,0000.0,0008.85,0003.97,0003.43
2022-07-10 02:22:00,,0830.1,5.00,0.00,29.3,27.8,00.0,37.9,31.2,18.4,0000.0,0008.95,0003.98,0003.42
2022-07-10 02:23:00,,0830.1,5.00,0.00,29.3,28.0,00.0,38.0,31.2,18.3,0000.0,0009.18,0003.96,0003.42
2022-07-10 02:24:00,,0830.1,5.00,0.00,29.4,28.2,00.0,38.0,31.3,17.8,0000.0,0009.42,0003.96,0003.42
2022-07-10 02:25:00,,0830.1,4.99,0.00,29.4,28.3,00.0,38.0,31.4,18.3,0000.0,0009.99,0003.95,0003.40
2022-07-10 02:26:00,,0830.1,5.00,0.00,29.4,27.9,00.0,38.0,31.3,18.4,0000.0,0010.37,0003.95,0003.39
2022-07-10 02:27:00,,0830.1,5.00,0.00,29.3,27.1,00.0,37.9,31.2,18.3,0000.0,0010.61,0003.96,0003.38
2022-07-10 02:28:00,,0830.1,4.99,0.00,29.3,27.0,00.0,37.9,31.1,18.2,0000.0,0011.23,0003.97,0003.38
2022-07-10 02:29:00,,0830.2,5.01,0.00,29.3,27.0,00.0,37.9,31.0,18.5,0000.0,0011.06,0003.92,0003.37
2022-07-10 02:30:00,,0830.1,5.00,0.00,29.2,27.2,00.0,37.9,31.0,18.5,0000.0,0010.80,0003.87,0003.37
2022-07-10 02:31:00,,0830.2,5.01,0.00,29.2,27.4,00.0,37.9,31.0,18.5,0000.0,0011.15,0003.87,0003.37
2022-07-10 02:32:00,,0830.2,5.00,0.00,29.3,27.6,00.0,38.0,31.1,18.6,0000.0,0010.47,0003.87,0003.38
2022-07-10 02:33:00,,0830.1,5.00,0.00,29.3,27.9,00.0,38.0,31.2,18.4,0000.0,0010.41,0003.88,0003.39
2022-07-10 02:34:00,,0830.2,5.01,0.00,29.3,28.1,00.0,38.0,31.3,18.3,0000.0,0010.11,0003.89,0003.40
2022-07-10 02:35:00,,0830.1,4.99,0.00,29.4,28.2,00.0,38.0,31.3,18.4,0000.0,0009.96,0003.89,0003.39
2022-07-10 02:36:00,,0830.2,4.99,0.00,29.4,28.3,00.0,38.0,31.4,18.4,0000.0,0009.44,0003.89,0003.39
2022-07-10 02:37:00,,0830.1,5.00,0.00,29.4,27.6,00.0,38.0,31.3,18.6,0000.0,0009.54,0003.87,0003.40
2022-07-10 02:38:00,,0830.2,5.00,0.00,29.4,27.1,00.0,37.9,31.2,18.8,0000.0,0009.50,0003.86,0003.40
2022-07-10 02:39:00,,0830.1,5.00,0.00,29.3,27.0,00.0,38.0,31.1,18.8,0000.0,0008.82,0003.87,0003.40
2022-07-10 02:40:00,,0830.1,4.99,0.00,29.3,27.1,00.0,37.9,31.0,18.9,0000.0,0008.82,0003.92,0003.41
2022-07-10 02:41:00,,0830.1,5.00,0.00,29.2,27.3,00.0,38.0,31.0,18.9,0000.0,0008.79,0003.94,0003.41
2022-07-10 02:42:00,,0830.1,5.00,0.00,29.3,27.5,00.0,38.0,31.1,18.8,0000.0,0009.00,0003.92,0003.40
2022-07-10 02:43:00,,0830.2,5.00,0.00,29.3,27.7,00.0,38.0,31.1,18.7,0000.0,0009.20,0003.91,0003.39
2022-07-10 02:44:00,,0830.3,5.00,0.00,29.3,27.9,00.0,38.0,31.2,18.9,0000.0,0009.29,0003.90,0003.38
2022-07-10 02:45:00,,0830.1,4.99,0.00,29.4,28.1,00.0,38.0,31.3,19.0,0000.0,0009.57,0003.93,0003.38
2022-07-10 02:46:00,,0830.1,5.00,0.00,29.4,28.3,00.0,38.0,31.4,18.6,0000.0,0009.63,0003.95,0003.39
2022-07-10 02:47:00,,0830.2,5.00,0.00,29.4,28.1,00.0,38.0,31.4,19.0,0000.0,0010.16,0003.96,0003.39
2022-07-10 02:48:00,,0830.1,5.00,0.00,29.4,27.3,00.0,38.0,31.2,18.6,0000.0,0010.47,0003.95,0003.39
2022-07-10 02:49:00,,0830.1,5.00,0.00,29.3,26.9,00.0,38.0,31.1,18.8,0000.0,0010.61,0003.95,0003.38
2022-07-10 02:50:00,,0830.2,5.00,0.00,29.3,27.0,00.0,38.0,31.0,18.9,0000.0,0010.97,0003.93,0003.37
2022-07-10 02:51:00,,0830.1,4.99,0.00,29.2,27.1,00.0,38.0,30.9,18.9,0000.0,0011.13,0003.92,0003.37
2022-07-10 02:52:00,,0830.2,5.00,0.00,29.2,27.3,00.0,38.0,31.0,18.9,0000.0,0011.90,0003.94,0003.37
2022-07-10 02:53:00,,0830.3,5.00,0.00,29.2,27.5,00.0,38.0,31.1,19.0,0000.0,0011.53,0003.99,0003.38
2022-07-10 02:54:00,,0830.3,5.00,0.00,29.3,27.7,00.0,38.0,31.1,18.9,0000.0,0011.30,0004.00,0003.37
2022-07-10 02:55:00,,0830.2,5.01,0.00,29.3,27.9,00.0,38.0,31.2,19.0,0000.0,0011.51,0003.99,0003.36
2022-07-10 02:56:00,,0830.2,5.00,0.00,29.3,28.1,00.0,38.0,31.3,18.9,0000.0,0011.54,0003.95,0003.35
2022-07-10 02:57:00,,0830.3,5.00,0.00,29.4,28.3,00.0,38.1,31.4,18.8,0000.0,0011.39,0003.91,0003.35
2022-07-10 02:58:00,,0830.3,5.00,0.00,29.4,28.2,00.0,38.0,31.4,18.8,0000.0,0011.15,0003.90,0003.35
2022-07-10 02:59:00,,0830.3,4.99,0.00,29.4,27.5,00.0,38.0,31.3,19.1,0000.0,0010.36,0003.90,0003.35
